Flag for Canada Weather past 2 weeks in Saanich, British Columbia, Canada

Now
43 °F

Passing clouds.


Feels Like: 37 °F
Forecast: 44 / 51 °F
Wind: 9 mph from West

Location: Victoria Int. Airportb. C.

Current Time: Apr 2, 2015 at 1:04:29 AM

Latest Report: Apr 2, 2015 at 12:00 AM


Visibility: 30 mi

Pressure: 30.31 "Hg

Humidity: 81%

Dew point: 37 °F

Location of SaanichLocation

Historic Weather in Saanich — Graph

°F

Saanich temperature yesterday

Maximum temperature yesterday: 52 °F (at 12:00 PM)
Minimum temperature yesterday: 36 °F (at 4:53 AM)
Average temperature yesterday: 45 °F

Past Weeks' High & Low Weather Summary

 TemperatureHumidityPressure
High59 °F (Mar 26, 1:00 PM)100% (Mar 18, 3:00 AM)30.31 "Hg (Mar 18, 3:00 AM)
Low36 °F (Mar 24, 7:03 AM)41% (Mar 31, 2:00 PM)29.76 "Hg (Mar 30, 11:00 PM)
Average49 °F85%30.07 "Hg
* Reported Midnight between Mar 17 and Mar 18 — Midnight between Apr 1 and Apr 2, Saanich, Weather by CustomWeather, © 2015

Note: Actual official high and low records may vary slightly from our data, if they occured in-between our weather recording intervals... More about our weather records

Advertising

Saanich weather history for previous 24 hours

 ConditionsComfort  
Time TempWeatherWind HumidityBarometerVisibility
12:00 AM
Thu, Apr 2
43 °FPassing clouds.9 mph81%30.31 "Hg30 mi
11:00 PM
Wed, Apr 1
43 °FPassing clouds.10 mph81%30.30 "Hg30 mi
10:00 PM45 °FPassing clouds.9 mph81%30.29 "Hg30 mi
9:00 PM45 °FPassing clouds.10 mph81%30.29 "Hg30 mi
8:00 PM45 °FScattered clouds.10 mph81%30.27 "Hg30 mi
7:00 PM46 °FBroken clouds.6 mph82%30.27 "Hg30 mi
6:00 PM48 °FPartly sunny.8 mph76%30.27 "Hg30 mi
5:00 PM48 °FSprinkles. Broken clouds.8 mph76%30.27 "Hg30 mi
4:00 PM52 °FPartly sunny.No wind62%30.26 "Hg30 mi
3:00 PM50 °FBroken clouds.3 mph67%30.25 "Hg30 mi
2:00 PM50 °FBroken clouds.13 mph62%30.25 "Hg30 mi
1:00 PM52 °FPartly sunny.10 mph62%30.25 "Hg30 mi
12:00 PM52 °FPartly sunny.3 mph58%30.26 "Hg30 mi
11:00 AM50 °FPartly sunny.6 mph58%30.26 "Hg30 mi
10:00 AM48 °FPartly sunny.3 mph66%30.26 "Hg30 mi
9:00 AM45 °FScattered clouds.2 mph76%30.25 "Hg30 mi
8:00 AM39 °FPassing clouds.No wind87%30.24 "Hg30 mi
7:00 AM37 °FPassing clouds.2 mph87%30.23 "Hg30 mi
6:00 AM39 °FPassing clouds.3 mph87%30.22 "Hg30 mi
5:00 AM36 °FPassing clouds.6 mph93%30.21 "Hg30 mi
4:53 AM36 °FPassing clouds.6 mph93%30.21 "Hg30 mi
4:00 AM39 °FPassing clouds.3 mph81%30.21 "Hg30 mi
3:00 AM43 °FPassing clouds.9 mph76%30.20 "Hg30 mi
2:00 AM41 °FPassing clouds.10 mph81%30.19 "Hg30 mi
1:00 AM43 °FPassing clouds.7 mph76%30.19 "Hg30 mi
Weather by CustomWeather, © 2015

See weather overviewHow to use our weather pages